Weather History for Vinton, IA

Change the Weather History Date:

Thursday, January 3, 2013

  Actual Average Record
Temperature  
Mean Temperature 17 °F -  
Max Temperature 27 °F 28 °F 51 °F (2007)
Min Temperature 7 °F 10 °F -16 °F (2014)
Degree Days  
Heating Degree Days 48    
Moisture  
Dew Point 9 °F    
Average Humidity 77    
Maximum Humidity 86    
Minimum Humidity 72    
Precipitation  
Precipitation 0.00 in - - ()
Sea Level Pressure  
Sea Level Pressure 30.26 in    
Wind  
Wind Speed 12 mph (WNW)    
Max Wind Speed 20 mph    
Max Gust Speed 28 mph    
Visibility 10 miles    
Events      
Averages and records for this station are not official NWS values.
T = Trace of Precipitation, MM = Missing Value Source: NWS Daily Summary

Daily Weather History Graph

Daily Weather History Graph

Search for Another Location

Airport:

Trip Planner

Search our weather history database for the weather conditions in past years. The results will help you decide how hot, cold, wet, or windy it might be!

Date:

Astronomy

Jan. 03, 2013 Rise Set
Actual Time 7:37 AM CST 4:48 PM CST
Civil Twilight 7:05 AM CST 5:20 PM CST
Nautical Twilight 6:30 AM CST 5:55 PM CST
Astronomical Twilight 5:56 AM CST 6:29 PM CST
Moon 11:32 PM CST (1/3) 10:41 AM CST (1/3)
Length of Visible Light 10h 15m
Length of Day
9h 11m
Waning Gibbous, 65% of the Moon is Illuminated
Jan 3
Waning Gibbous
Jan 4
Last Quarter
Jan 11
New
Jan 18
First Quarter
Jan 26
Full

Hourly Weather History & Observations

Time (CST) Temp. Windchill Dew Point Humidity Pressure Visibility Wind Dir Wind Speed Gust Speed Precip Events Conditions
12:15 AM 27.5 °F 18.0 °F 23.7 °F 86% 30.11 in 10.0 mi West 10.4 mph - N/A   Overcast
12:35 AM 27.5 °F 17.4 °F 23.7 °F 86% 30.12 in 10.0 mi WNW 11.5 mph 17.3 mph N/A   Overcast
12:55 AM 27.5 °F 18.6 °F 23.5 °F 85% 30.12 in 10.0 mi WNW 9.2 mph - N/A   Mostly Cloudy
1:15 AM 27.5 °F 16.3 °F 23.7 °F 86% 30.12 in 10.0 mi WNW 13.8 mph - N/A   Mostly Cloudy
1:35 AM 27.5 °F 17.4 °F 22.6 °F 82% 30.13 in 10.0 mi WNW 11.5 mph - N/A   Mostly Cloudy
1:55 AM 27.5 °F 16.3 °F 22.5 °F 81% 30.13 in 10.0 mi WNW 13.8 mph - N/A   Scattered Clouds
2:15 AM 27.5 °F 17.4 °F 21.2 °F 77% 30.13 in 10.0 mi NW 11.5 mph - N/A   Mostly Cloudy
2:35 AM 27.5 °F 17.4 °F 20.1 °F 74% 30.14 in 10.0 mi NNW 11.5 mph 16.1 mph N/A   Mostly Cloudy
2:55 AM 25.2 °F 15.7 °F 18.5 °F 76% 30.15 in 10.0 mi WNW 9.2 mph - N/A   Scattered Clouds
3:15 AM 25.2 °F 16.5 °F 18.5 °F 76% 30.15 in 10.0 mi WNW 8.1 mph - N/A   Scattered Clouds
3:35 AM 25.2 °F 17.3 °F 19.2 °F 78% 30.15 in 10.0 mi West 6.9 mph - N/A   Mostly Cloudy
3:55 AM 25.2 °F 14.4 °F 19.4 °F 79% 30.15 in 10.0 mi WNW 11.5 mph - N/A   Overcast
4:15 AM 25.2 °F 15.1 °F 19.4 °F 79% 30.15 in 10.0 mi WNW 10.4 mph - N/A   Mostly Cloudy
4:35 AM 25.2 °F 12.4 °F 18.5 °F 76% 30.16 in 10.0 mi NW 16.1 mph 19.6 mph N/A   Mostly Cloudy
4:55 AM 25.0 °F 12.6 °F 18.7 °F 77% 30.16 in 10.0 mi NW 15.0 mph 23.0 mph N/A   Mostly Cloudy
5:15 AM 23.7 °F 11.5 °F 17.4 °F 77% 30.17 in 10.0 mi NW 13.8 mph 20.7 mph N/A   Mostly Cloudy
5:35 AM 22.6 °F 10.1 °F 16.3 °F 77% 30.18 in 10.0 mi WNW 13.8 mph - N/A   Scattered Clouds
6:15 AM 17.6 °F 3.2 °F 10.8 °F 75% 30.20 in 10.0 mi WNW 15.0 mph 21.9 mph N/A   Mostly Cloudy
6:35 AM 15.3 °F -1.8 °F 7.7 °F 72% 30.21 in 10.0 mi NW 19.6 mph 27.6 mph N/A   Overcast
6:55 AM 15.3 °F -1.3 °F 8.6 °F 75% 30.22 in 10.0 mi NW 18.4 mph 23.0 mph N/A   Overcast
7:15 AM 12.9 °F -3.4 °F 5.9 °F 74% 30.24 in 10.0 mi NW 16.1 mph 24.2 mph N/A   Scattered Clouds
7:35 AM 12.7 °F -4.6 °F 6.4 °F 76% 30.24 in 10.0 mi NW 18.4 mph - N/A   Clear
7:55 AM 12.7 °F -2.5 °F 6.8 °F 77% 30.25 in 10.0 mi WNW 13.8 mph - N/A   Clear
8:15 AM 12.7 °F -1.8 °F 6.4 °F 76% 30.26 in 10.0 mi NW 12.7 mph 19.6 mph N/A   Clear
8:35 AM 12.7 °F -1.8 °F 6.4 °F 76% 30.27 in 10.0 mi NW 12.7 mph 18.4 mph N/A   Clear
8:55 AM 12.7 °F -2.5 °F 6.4 °F 76% 30.27 in 10.0 mi WNW 13.8 mph - N/A   Mostly Cloudy
9:15 AM 12.7 °F -3.0 °F 6.8 °F 77% 30.27 in 10.0 mi NW 15.0 mph 20.7 mph N/A   Mostly Cloudy
9:35 AM 12.7 °F -2.5 °F 6.1 °F 75% 30.28 in 10.0 mi WNW 13.8 mph - N/A   Mostly Cloudy
9:55 AM 12.7 °F -2.5 °F 6.3 °F 75% 30.29 in 10.0 mi NW 13.8 mph 20.7 mph N/A   Overcast
10:15 AM 12.7 °F -2.5 °F 5.9 °F 74% 30.30 in 10.0 mi WNW 13.8 mph 19.6 mph N/A   Overcast
10:35 AM 12.7 °F -1.8 °F 5.9 °F 74% 30.30 in 10.0 mi WNW 12.7 mph - N/A   Mostly Cloudy
10:55 AM 13.1 °F -2.6 °F 5.9 °F 73% 30.29 in 10.0 mi WNW 15.0 mph - N/A   Overcast
11:15 AM 14.0 °F -1.4 °F 7.0 °F 74% 30.30 in 10.0 mi WNW 15.0 mph 18.4 mph N/A   Overcast
11:35 AM 14.0 °F -2.0 °F 6.8 °F 73% 30.30 in 10.0 mi WNW 16.1 mph - N/A   Mostly Cloudy
11:55 AM 14.0 °F -0.8 °F 6.8 °F 73% 30.29 in 10.0 mi WNW 13.8 mph - N/A   Mostly Cloudy
12:15 PM 15.3 °F -0.4 °F 8.1 °F 73% 30.29 in 10.0 mi WNW 16.1 mph 19.6 mph N/A   Mostly Cloudy
12:35 PM 15.3 °F 2.0 °F 8.1 °F 73% 30.29 in 10.0 mi West 11.5 mph 18.4 mph N/A   Mostly Cloudy
12:55 PM 15.3 °F 0.2 °F 8.1 °F 73% 30.29 in 10.0 mi WNW 15.0 mph - N/A   Mostly Cloudy
1:15 PM 15.3 °F 0.8 °F 8.2 °F 74% 30.29 in 10.0 mi WNW 13.8 mph - N/A   Scattered Clouds
1:35 PM 15.3 °F 2.8 °F 7.7 °F 72% 30.29 in 10.0 mi West 10.4 mph - N/A   Mostly Cloudy
1:55 PM 15.3 °F 0.2 °F 8.2 °F 74% 30.29 in 10.0 mi WNW 15.0 mph - N/A   Mostly Cloudy
2:15 PM 15.3 °F 0.8 °F 8.2 °F 74% 30.29 in 10.0 mi WNW 13.8 mph - N/A   Overcast
2:35 PM 14.2 °F -0.6 °F 7.3 °F 74% 30.30 in 10.0 mi WNW 13.8 mph - N/A   Overcast
2:55 PM 14.7 °F 0.1 °F 7.7 °F 74% 30.30 in 10.0 mi WNW 13.8 mph - N/A   Overcast
3:55 PM 14.0 °F 0.5 °F 6.6 °F 72% 30.32 in 10.0 mi WNW 11.5 mph - N/A   Clear
4:15 PM 12.7 °F -0.4 °F 5.7 °F 74% 30.33 in 10.0 mi WNW 10.4 mph - N/A   Clear
4:35 PM 12.7 °F -0.4 °F 5.9 °F 74% 30.33 in 10.0 mi WNW 10.4 mph - N/A   Clear
4:55 PM 12.7 °F 3.6 °F 6.6 °F 77% 30.33 in 10.0 mi West 5.8 mph - N/A   Clear
5:15 PM 10.4 °F -1.5 °F 4.8 °F 78% 30.33 in 10.0 mi West 8.1 mph - N/A   Clear
5:35 PM 10.4 °F -1.5 °F 4.8 °F 78% 30.33 in 10.0 mi West 8.1 mph - N/A   Clear
5:55 PM 10.2 °F -1.7 °F 4.5 °F 78% 30.33 in 10.0 mi West 8.1 mph - N/A   Clear
6:15 PM 10.2 °F -1.7 °F 4.6 °F 78% 30.34 in 10.0 mi West 8.1 mph - N/A   Clear
6:35 PM 10.2 °F -1.7 °F 4.8 °F 79% 30.34 in 10.0 mi West 8.1 mph - N/A   Clear
6:55 PM 10.2 °F -0.6 °F 4.6 °F 78% 30.35 in 10.0 mi West 6.9 mph - N/A   Clear
7:15 PM 9.3 °F -3.8 °F 3.9 °F 79% 30.35 in 10.0 mi West 9.2 mph - N/A   Clear
7:35 PM 10.0 °F -1.9 °F 4.6 °F 79% 30.35 in 10.0 mi West 8.1 mph - N/A   Clear
7:55 PM 9.0 °F -2.2 °F 3.7 °F 79% 30.34 in 10.0 mi West 6.9 mph - N/A   Clear
8:15 PM 9.0 °F -0.9 °F 3.7 °F 79% 30.33 in 10.0 mi West 5.8 mph - N/A   Clear
8:35 PM 9.1 °F -0.7 °F 4.1 °F 80% 30.34 in 10.0 mi WSW 5.8 mph - N/A   Clear
8:55 PM 9.0 °F -2.2 °F 3.9 °F 80% 30.33 in 10.0 mi WSW 6.9 mph - N/A   Clear
9:15 PM 7.7 °F -0.9 °F 2.8 °F 81% 30.32 in 10.0 mi West 4.6 mph - N/A   Clear
9:35 PM 7.7 °F -3.7 °F 2.8 °F 81% 30.32 in 10.0 mi West 6.9 mph - N/A   Clear
9:55 PM 7.7 °F -2.4 °F 2.5 °F 79% 30.32 in 10.0 mi WSW 5.8 mph - N/A   Clear
10:15 PM 7.7 °F -2.4 °F 2.8 °F 81% 30.32 in 10.0 mi WSW 5.8 mph - N/A   Clear
10:35 PM 7.7 °F -2.4 °F 3.0 °F 81% 30.31 in 10.0 mi WSW 5.8 mph - N/A   Clear
10:55 PM 7.7 °F -2.4 °F 3.2 °F 82% 30.30 in 10.0 mi SW 5.8 mph - N/A   Clear
11:15 PM 7.7 °F -2.4 °F 3.2 °F 82% 30.29 in 10.0 mi SW 5.8 mph - N/A   Clear
11:35 PM 7.7 °F -2.4 °F 3.4 °F 83% 30.28 in 10.0 mi SSW 5.8 mph - N/A   Clear
11:55 PM 7.7 °F -2.4 °F 3.6 °F 83% 30.28 in 10.0 mi SW 5.8 mph - N/A   Clear